Theta_e
349 349 350 350 351 350 349 348 348 348 349 349 348 348 349 349 349 348 347 346 346 346 345 346 346 345 346 346 347 347 347 347 347 347 346 345 345 346 347 348 349 350 351 351 350 349 349 349 349 349 347 347 347 346 343 340 341 341 342 341 341 340 338 338 338 337 337 337 338 339 338 337 336 336 336 337 336 336 337 338 339 340 341 342 344
350 350 350 351 350 349 348 348 348 349 349 349 349 349 349 349 350 350 350 348 347 346 345 345 346 346 346 346 346 346 346 346 347 347 347 346 346 345 347 348 349 349 350 349 349 349 349 349 349 349 349 348 347 347 345 342 340 340 342 342 341 341 340 339 338 337 337 336 337 338 338 337 336 335 336 337 337 337 337 338 338 339 340 341 342
351 352 352 351 351 350 349 349 348 349 349 349 349 349 350 351 352 352 352 351 350 348 347 347 347 346 346 346 346 345 345 346 346 346 346 347 347 346 346 347 348 348 348 348 348 349 350 348 349 350 350 349 348 347 346 345 343 340 341 342 342 341 341 341 340 339 338 337 336 336 338 338 337 336 336 337 338 338 338 339 339 340 341 341 342
352 352 353 352 352 351 350 350 349 349 349 350 349 351 352 352 352 352 352 351 351 350 350 350 349 348 347 347 346 345 344 345 346 346 346 347 347 347 346 346 347 347 348 348 348 349 350 348 347 349 349 348 349 348 347 347 345 342 340 341 343 342 342 341 341 340 339 339 338 336 337 338 338 337 336 337 338 338 339 340 340 341 342 342 342
351 352 353 353 353 352 351 351 350 350 351 350 351 352 352 352 352 352 352 351 350 350 350 350 349 348 348 348 347 347 346 345 345 346 347 347 347 347 347 346 346 346 347 347 348 350 351 349 347 347 347 345 347 349 348 348 347 345 342 340 341 343 343 342 341 341 340 340 339 338 337 336 337 337 337 338 338 339 339 340 341 341 342 342 342
350 351 353 354 354 352 351 351 352 353 352 351 353 353 353 352 352 352 352 350 350 349 349 350 349 348 348 348 348 348 347 346 346 346 346 346 346 347 347 347 347 346 346 346 347 349 350 351 349 348 347 345 346 347 347 349 348 347 345 342 339 340 344 345 343 342 341 341 340 340 338 337 337 337 338 338 338 339 339 340 341 341 342 341 341
351 352 353 354 355 353 351 351 353 353 352 352 353 352 352 352 351 352 350 349 349 348 349 349 349 348 347 347 347 347 348 347 347 347 346 345 344 345 347 347 347 347 346 346 346 347 348 350 351 350 348 347 345 345 346 347 348 348 347 345 341 338 340 344 345 343 342 341 341 340 339 339 338 338 338 338 339 339 339 339 340 341 342 341 341
352 352 352 354 355 352 350 351 352 352 352 352 351 351 351 350 350 351 349 348 349 349 349 350 349 348 347 347 346 346 347 348 348 347 347 347 346 346 347 347 348 347 346 346 345 345 346 347 350 352 352 348 345 344 345 345 345 346 347 347 345 341 338 340 343 344 344 342 342 341 340 339 339 339 339 339 339 339 339 339 340 341 341 341 340
351 351 352 354 354 352 351 352 352 352 350 349 349 349 349 349 349 348 349 348 349 349 349 349 348 347 347 347 346 345 346 346 345 345 346 347 347 347 347 347 348 347 346 346 345 345 346 346 347 350 351 350 348 345 344 344 344 345 346 347 347 345 341 338 339 342 344 344 343 342 341 340 340 339 339 339 339 339 339 339 340 340 340 339 339
350 350 351 352 352 351 351 351 350 348 347 346 346 346 346 347 347 346 346 347 347 348 348 348 347 346 346 346 346 346 345 345 343 343 344 347 348 348 348 348 347 347 347 347 346 346 346 346 346 347 348 350 350 348 347 346 345 345 346 347 348 347 345 342 339 339 342 344 344 343 342 342 341 340 339 339 339 339 339 339 339 339 338 338 338
351 350 350 349 349 349 349 348 346 346 346 345 345 344 344 344 344 343 343 345 346 346 347 347 347 346 345 345 345 344 344 343 342 342 343 345 347 347 347 347 346 347 347 348 348 347 347 347 347 346 346 348 348 348 349 350 348 346 345 346 347 347 347 346 342 339 338 341 343 344 343 342 342 340 340 339 339 339 339 339 339 339 338 338 338
350 347 346 346 346 345 346 345 345 346 346 344 344 343 343 343 344 344 343 344 345 345 346 347 346 345 343 343 343 343 342 341 341 343 343 344 345 346 346 346 346 347 347 348 348 348 348 347 347 347 347 347 347 347 350 352 351 349 347 347 347 347 347 347 346 343 339 338 340 343 343 343 342 341 340 339 339 339 339 339 339 339 339 339 339
347 344 344 345 344 345 346 345 345 345 342 341 341 341 342 344 346 346 345 345 344 344 345 346 346 344 343 343 341 341 341 341 342 342 342 342 342 343 344 345 345 346 347 347 347 347 347 347 347 347 347 347 347 347 349 351 351 351 350 349 348 347 347 347 347 347 343 339 338 341 343 343 342 341 341 340 339 339 339 339 339 339 339 340 340
346 344 345 344 343 346 347 345 343 340 338 339 341 341 343 345 346 346 346 346 344 344 345 345 345 344 343 342 341 341 339 341 342 340 339 340 340 341 341 342 343 344 344 344 343 343 343 344 345 346 346 346 346 346 346 348 349 349 349 349 349 348 348 348 348 348 347 344 340 339 341 343 343 341 341 341 340 340 340 340 340 339 339 339 339
346 344 343 342 343 346 345 342 340 337 337 340 342 343 344 344 345 345 345 344 343 344 344 344 344 343 343 343 343 342 340 342 341 338 339 340 338 340 341 341 342 341 340 339 339 340 341 342 343 344 344 344 345 345 345 346 347 347 347 348 349 349 349 349 348 347 347 348 346 342 340 341 342 342 341 340 340 339 339 339 339 339 339 339 338
345 342 342 341 342 343 341 339 339 338 339 341 342 343 343 344 345 344 343 342 342 343 344 344 343 343 343 344 343 341 342 342 339 338 340 338 337 339 340 340 340 338 336 335 336 338 339 341 342 342 342 343 343 344 344 345 345 346 347 348 349 349 349 349 349 347 346 348 349 347 344 341 340 341 341 340 340 339 339 339 339 339 339 338 338
343 341 341 340 339 339 339 339 339 339 340 341 341 342 342 343 343 343 343 342 342 343 343 343 343 342 342 343 344 343 343 341 339 340 339 337 338 337 336 336 336 334 334 333 333 335 337 339 340 340 340 341 341 342 343 343 344 344 345 347 348 349 349 349 349 348 346 347 348 349 347 345 343 341 340 340 340 339 339 339 338 338 338 338 337
340 340 339 337 337 338 339 339 339 339 339 340 341 341 341 342 342 343 343 343 343 342 342 341 341 342 341 341 342 343 342 340 341 343 339 337 338 336 334 334 333 332 332 331 332 333 334 335 336 338 338 338 339 340 341 342 342 343 344 344 346 347 348 348 348 348 347 347 348 350 349 347 346 344 342 341 340 340 339 339 339 338 337 337 337
338 338 336 336 337 338 339 340 339 339 338 339 340 340 341 342 341 342 342 342 343 342 340 340 339 340 341 341 341 340 341 340 340 342 340 338 337 335 334 333 332 331 330 330 330 330 330 332 333 333 334 335 335 337 338 339 340 341 342 343 344 346 346 346 347 347 348 348 347 349 351 349 347 346 346 344 341 340 340 339 339 338 338 337 336
338 337 335 336 338 339 340 340 339 339 336 338 340 340 340 342 341 341 341 341 342 340 339 340 339 339 340 340 340 338 339 340 339 340 340 340 338 335 334 332 329 327 327 327 326 326 327 329 329 330 331 333 334 335 336 337 338 339 341 342 343 344 345 345 346 346 348 348 348 350 351 351 348 347 346 346 345 342 341 339 338 338 338 337 335
338 337 336 337 338 338 340 340 338 337 335 337 340 339 338 340 340 341 340 340 339 339 339 339 339 339 339 339 338 337 336 337 338 338 338 338 338 336 334 333 328 322 321 323 323 323 325 325 325 327 329 330 331 333 335 335 337 338 339 340 341 343 344 345 345 346 346 347 348 349 350 351 351 349 348 348 348 346 344 342 340 339 339 338 336
338 338 337 337 337 338 339 338 337 336 335 336 338 338 338 339 341 340 338 338 338 338 338 338 338 338 338 338 337 336 336 335 336 337 336 337 337 336 335 334 333 327 320 321 323 322 323 323 323 324 324 324 326 329 332 334 335 336 337 338 339 340 342 343 344 345 345 345 346 346 348 350 350 352 351 349 349 348 347 345 343 342 341 340 338
338 337 336 336 338 338 338 337 337 335 335 335 337 337 338 340 340 337 335 336 337 338 338 337 337 336 336 337 337 336 337 336 336 336 336 337 337 336 334 332 333 332 323 320 322 321 321 322 321 321 321 322 323 326 329 331 333 334 335 336 337 339 340 341 342 343 344 344 345 345 347 348 348 351 351 350 350 349 349 348 347 344 344 343 342
338 336 335 337 339 338 337 337 337 335 334 335 337 337 337 339 339 336 335 337 337 337 337 337 336 335 336 337 337 336 336 336 336 336 335 336 335 334 333 331 333 332 326 322 322 320 321 321 320 320 321 321 322 323 324 325 326 328 329 331 333 335 337 338 340 342 343 343 343 344 346 347 347 349 350 350 350 351 350 350 349 348 347 346 345
337 335 335 338 339 338 337 337 335 332 333 336 337 338 337 337 338 336 336 337 337 337 337 336 335 335 336 337 336 335 335 335 336 336 336 335 334 333 332 332 332 331 328 326 325 322 320 320 320 320 320 321 321 321 321 321 321 322 323 325 327 329 331 334 336 339 341 342 342 343 345 346 347 348 349 350 350 351 351 351 351 350 350 348 347
337 336 337 338 338 336 335 334 333 331 334 337 337 337 337 337 336 335 336 336 337 337 336 336 335 336 336 336 336 334 334 334 335 336 336 336 335 333 332 331 331 329 328 327 326 325 322 320 319 319 320 320 320 321 320 320 320 320 321 322 323 325 326 329 332 334 337 340 342 342 343 344 346 347 348 349 350 350 350 351 351 351 350 350 349
337 336 337 337 335 334 333 334 334 334 335 337 336 336 337 336 335 334 335 335 335 336 336 336 336 336 336 336 335 334 333 333 335 335 335 335 335 334 333 331 329 328 327 327 325 324 323 322 320 319 320 320 320 321 321 321 320 321 321 322 323 324 324 325 328 330 333 337 340 343 343 343 344 345 346 347 349 349 349 350 351 352 351 351 351
336 336 336 337 335 334 335 335 336 336 336 336 336 336 336 336 336 335 335 335 335 335 335 336 336 336 337 336 336 335 332 332 333 333 333 334 333 333 333 331 330 329 328 329 327 324 322 322 322 320 319 319 320 320 321 321 321 321 321 322 323 324 325 325 326 327 330 333 338 341 343 343 343 344 345 346 347 348 348 348 350 352 352 351 351
335 336 337 337 336 335 336 335 335 335 335 335 335 336 336 336 336 336 335 335 335 335 335 336 336 336 337 336 336 336 333 332 332 332 332 329 327 327 327 328 329 328 328 330 328 325 323 322 322 322 320 319 320 320 321 321 320 321 322 322 322 323 324 325 325 327 329 331 334 337 341 343 344 344 344 345 346 346 347 348 349 351 351 351 352
335 335 337 337 336 335 335 334 334 335 335 335 335 335 335 336 336 336 335 335 335 335 335 336 337 337 337 336 336 336 335 333 331 331 332 328 323 321 322 324 326 326 327 327 326 324 323 322 323 323 322 320 321 321 321 320 320 321 322 322 322 323 324 325 326 327 329 331 332 333 335 338 341 343 345 345 346 346 346 346 347 349 350 350 351
333 335 336 336 335 335 335 333 333 333 333 333 334 335 336 336 336 336 336 336 336 335 335 335 335 336 336 335 336 335 335 334 332 331 331 330 327 323 320 321 323 324 325 325 326 324 323 322 323 323 323 322 321 321 321 320 320 321 322 322 323 323 324 325 326 327 328 331 332 332 333 333 335 339 343 345 345 346 346 346 346 346 347 348 349
333 336 336 335 335 334 334 333 332 332 332 331 332 333 335 336 336 336 336 336 336 336 335 334 335 335 335 335 335 335 334 334 333 331 331 331 330 327 324 321 320 322 323 324 326 325 323 323 324 324 324 322 321 321 320 320 320 321 322 322 323 324 324 325 326 327 328 330 332 333 334 333 334 337 341 344 345 345 346 346 345 345 346 346 347
334 336 336 335 334 334 333 333 332 332 333 332 331 331 332 333 334 336 336 336 336 336 336 335 335 335 335 335 335 334 334 334 333 332 331 331 331 330 328 326 322 321 322 323 324 324 323 324 324 324 324 323 322 320 320 321 321 321 322 322 323 324 324 325 326 327 328 329 332 334 334 335 335 336 340 343 345 345 345 345 345 345 345 346 346
333 334 334 335 334 334 334 334 334 333 333 333 332 331 331 331 332 334 335 336 336 336 336 335 335 334 335 335 335 334 334 333 333 332 332 331 331 330 330 329 327 324 322 322 323 323 323 324 325 325 324 323 322 320 319 321 321 321 322 323 323 324 324 325 326 327 329 329 331 333 334 335 335 336 338 341 343 344 344 344 344 344 345 345 346
331 332 333 334 333 334 334 334 334 334 334 334 333 333 332 331 330 332 334 335 336 336 336 335 335 334 333 333 332 332 332 333 333 333 332 332 331 331 330 329 329 328 325 323 323 324 324 325 326 325 324 323 323 321 320 321 321 322 322 323 323 324 324 325 326 327 328 330 331 332 333 334 335 335 335 337 341 343 343 343 343 343 344 344 345
331 332 332 333 333 334 334 334 335 334 335 335 334 334 333 332 331 331 332 333 334 335 335 334 334 332 331 330 328 329 331 333 333 332 332 332 331 331 330 329 329 328 327 325 324 324 324 325 326 326 325 324 323 321 320 321 321 322 322 323 324 324 324 325 326 327 328 329 330 332 333 334 334 335 334 335 338 340 342 342 342 342 343 343 344
331 332 333 334 334 334 335 334 334 334 333 333 334 334 334 333 331 330 331 332 333 333 333 334 334 331 328 326 325 327 330 331 331 331 331 331 331 330 330 330 329 329 328 327 325 325 325 325 326 326 325 324 323 321 320 321 322 322 322 323 323 324 325 325 325 326 326 328 329 330 332 333 335 335 335 335 336 337 339 340 341 342 343 344 345
332 334 334 334 333 333 333 332 331 331 331 331 332 333 334 333 332 331 332 333 333 333 333 333 333 329 325 325 325 327 329 330 331 331 331 330 330 330 330 329 329 328 328 327 326 326 326 326 326 326 325 323 323 321 319 320 322 322 323 323 323 324 324 325 325 326 326 327 328 329 330 332 334 336 336 336 336 337 337 338 338 340 342 343 345
334 335 334 332 331 330 330 330 330 329 329 330 329 330 332 332 331 331 331 332 333 333 333 333 333 329 325 325 326 327 328 330 330 330 330 330 330 330 329 329 328 327 327 327 327 326 326 327 327 326 324 323 322 322 320 321 321 322 323 323 324 323 324 324 325 325 326 326 327 327 328 329 332 335 336 337 337 337 338 338 337 338 339 341 343
335 335 332 330 330 330 330 330 330 329 329 329 329 329 330 330 330 331 331 331 332 333 333 333 332 329 327 326 326 326 327 329 329 329 330 330 330 330 329 329 329 328 327 327 327 326 326 327 327 326 324 323 322 321 321 321 321 322 322 323 324 324 324 324 325 325 326 326 326 326 327 329 330 333 335 337 337 337 336 337 338 338 338 340 342
336 335 331 331 331 331 331 331 330 330 329 329 329 329 329 330 330 330 330 331 332 332 332 332 331 330 328 327 327 326 326 327 329 329 329 329 330 330 329 329 329 329 328 327 327 326 327 328 327 326 324 322 321 321 321 321 321 322 323 323 323 324 323 324 324 324 325 326 326 326 328 330 332 332 334 336 337 337 337 337 337 338 338 339 341
337 335 331 332 332 331 332 331 330 330 330 329 330 329 329 330 329 330 330 331 331 332 332 331 331 331 329 328 327 326 326 327 328 328 328 328 329 328 328 328 329 330 329 328 327 327 327 328 327 326 324 322 321 321 321 321 322 322 323 323 323 323 323 324 324 324 324 325 326 327 328 330 333 334 335 336 336 337 338 338 338 339 338 338 340
336 334 332 332 332 331 331 332 332 332 331 330 330 330 329 329 329 330 330 330 331 331 331 331 331 331 330 328 327 326 326 326 326 327 327 327 327 327 327 328 328 329 329 329 329 328 328 328 327 326 324 322 321 321 321 322 322 323 323 323 323 323 323 323 323 323 324 325 326 327 327 327 330 334 336 337 337 338 339 338 337 338 339 339 340
335 334 333 332 333 331 331 332 333 333 331 330 330 330 330 329 329 329 329 330 330 330 330 330 330 331 330 329 327 326 325 326 326 327 327 327 326 327 327 327 328 328 329 329 329 329 328 327 327 326 324 322 321 321 322 322 323 323 323 322 322 323 323 323 323 323 323 324 325 326 326 326 327 331 335 336 337 339 339 339 337 338 339 340 342
336 335 333 333 333 331 331 333 334 333 332 330 330 330 330 329 329 329 329 328 329 329 329 329 329 330 331 329 328 326 326 326 327 327 327 327 326 326 326 327 328 328 328 328 328 328 327 327 326 325 323 322 321 322 323 323 323 323 323 322 322 322 322 322 322 322 322 323 324 325 326 326 326 328 332 334 336 338 339 339 339 338 338 339 341
336 335 333 333 333 332 332 333 334 334 332 331 331 330 330 330 329 329 329 328 328 328 328 327 328 329 330 329 328 327 326 327 328 328 328 328 327 326 325 326 327 327 327 326 325 324 324 324 324 323 322 322 322 323 323 322 322 322 322 322 321 321 322 322 321 322 321 322 323 325 325 325 326 327 329 332 335 337 338 339 339 339 339 339 339
336 335 333 334 333 332 333 334 334 334 332 332 332 331 330 330 329 329 329 328 328 327 326 326 326 327 328 328 327 326 326 327 328 327 329 329 327 325 325 326 326 326 326 325 323 323 323 323 323 323 323 323 323 324 323 320 320 320 321 321 321 321 321 321 321 321 322 322 323 325 325 326 326 327 328 330 334 337 338 338 339 340 340 339 339
336 335 334 335 334 333 333 334 335 335 334 333 332 331 330 330 329 329 329 328 327 326 326 326 325 326 327 327 325 324 324 325 326 328 329 328 325 325 326 326 326 326 326 324 323 324 324 324 324 324 323 323 323 324 322 318 317 319 320 320 320 320 320 321 321 321 322 322 323 324 326 326 326 327 328 328 332 336 338 338 339 339 340 340 339
336 336 335 334 334 333 333 334 335 335 335 333 332 331 331 331 330 330 329 328 327 326 326 326 326 326 326 325 322 321 321 321 323 326 327 326 324 325 326 326 325 325 325 324 323 324 325 324 323 322 322 323 323 322 319 317 317 319 320 320 320 320 320 321 321 321 321 322 323 324 326 326 326 327 328 328 331 335 338 339 339 340 340 340 340
336 335 334 334 333 333 334 335 335 336 335 334 332 331 331 331 330 330 330 328 327 326 327 327 326 326 326 324 321 320 320 320 320 322 324 324 324 325 325 325 324 324 324 324 324 324 323 322 322 322 321 322 322 321 318 316 316 317 319 320 320 320 320 321 321 321 321 322 322 323 326 327 327 327 328 329 331 333 336 338 339 339 340 341 341
335 334 334 334 334 334 335 335 336 336 336 335 332 331 331 331 331 330 329 328 327 327 327 326 326 326 326 324 322 320 320 320 319 320 322 323 324 324 325 324 322 322 323 323 321 321 320 321 321 321 321 321 320 318 316 316 316 316 318 319 319 320 320 320 320 321 321 322 322 323 326 327 327 327 328 330 332 334 335 336 338 339 340 341 341
Wind_Speed
14 13 13 13 13 12 13 13 13 11 11 11 11 10 9 9 10 10 10 11 12 12 12 11 11 11 10 10 10 11 11 10 10 10 10 10 10 11 12 15 16 16 16 15 15 16 18 19 20 20 19 19 19 19 19 19 19 19 19 19 19 18 18 18 17 17 17 17 16 15 15 15 14 14 14 13 13 12 12 12 11 11 10 9 9
15 14 14 14 13 13 12 12 11 11 11 10 9 9 10 10 10 11 11 12 13 13 13 13 12 12 12 12 12 13 13 12 11 10 10 11 11 11 12 14 16 17 17 16 16 17 18 20 21 21 21 20 19 19 20 20 20 20 20 20 20 19 19 19 18 18 18 18 17 17 16 16 16 15 15 14 14 13 13 12 12 12 11 10 10
15 14 14 14 14 13 12 11 11 10 10 9 8 9 10 11 11 11 10 11 12 12 13 15 14 14 13 13 13 13 13 13 12 11 11 11 11 11 11 13 15 16 16 15 17 18 19 21 21 20 20 20 20 19 20 21 20 21 21 22 21 21 20 20 19 19 19 19 19 18 18 17 17 17 16 16 15 15 14 13 13 13 12 12 11
16 15 15 15 15 14 13 12 11 9 8 9 9 9 11 12 13 12 11 11 12 13 13 14 15 15 15 15 14 13 13 13 13 13 12 12 12 12 11 12 13 14 15 15 17 18 19 21 22 21 21 21 21 21 21 21 21 21 22 23 23 22 22 21 21 20 20 20 20 20 19 19 18 18 17 17 16 16 15 15 14 14 14 13 13
16 16 17 16 15 14 13 12 10 8 9 10 10 11 12 13 14 14 13 12 13 13 12 12 14 14 14 14 14 13 13 13 14 14 13 12 12 12 12 12 13 13 14 16 16 18 19 21 23 23 23 22 22 22 22 21 21 22 22 23 24 24 23 22 22 22 21 21 21 21 20 20 19 19 18 18 18 17 17 16 16 15 15 15 14
17 18 18 17 15 14 13 11 10 8 9 10 10 12 14 14 14 14 14 13 13 13 13 12 12 13 13 13 13 12 12 12 13 14 14 14 13 13 14 14 14 13 14 16 17 18 20 21 22 23 24 24 23 23 23 23 23 23 23 23 24 25 25 24 24 23 23 22 22 22 21 21 20 20 20 19 19 19 18 18 17 16 16 16 15
17 17 18 17 14 13 12 10 11 10 10 11 10 12 13 12 12 12 13 12 13 13 13 12 12 12 13 14 14 12 11 11 12 14 16 16 16 15 15 15 16 15 15 16 17 18 20 21 22 23 24 24 24 24 24 24 25 25 24 24 24 25 26 26 25 25 25 24 24 23 23 22 22 21 21 21 20 20 20 19 18 18 17 17 16
15 16 16 15 13 13 12 11 11 11 11 11 10 10 10 10 10 11 11 12 13 13 13 13 13 13 14 15 15 13 12 11 12 14 15 16 17 16 15 16 17 17 16 17 18 19 20 21 23 23 24 25 25 26 26 26 26 25 26 26 25 26 26 27 28 27 26 25 25 25 24 24 23 23 22 22 22 21 21 20 20 19 18 18 18
13 13 13 13 12 13 12 11 10 9 8 9 8 7 9 10 10 10 11 12 13 13 13 13 13 14 14 14 14 13 12 12 13 14 14 15 15 15 15 15 16 18 18 19 19 20 20 21 22 22 23 25 26 26 27 27 27 27 27 27 26 26 26 27 29 29 29 27 27 26 26 25 25 25 24 23 23 23 22 22 21 20 20 19 19
10 10 10 10 11 11 10 8 7 6 5 6 6 6 7 9 10 10 10 12 12 12 12 12 13 14 14 13 12 12 12 13 13 12 12 13 14 14 15 15 16 18 19 20 20 20 20 20 21 21 22 24 25 26 28 29 29 29 28 28 27 27 27 27 29 30 31 30 29 28 27 27 27 26 26 25 24 24 24 23 22 22 21 21 20
6 6 6 7 7 7 5 4 3 4 4 5 5 7 7 8 10 9 10 11 11 11 10 11 12 13 14 13 11 11 11 11 11 11 11 12 14 15 16 16 17 17 18 19 20 20 20 20 21 22 23 23 23 25 28 29 30 30 30 29 29 29 28 28 28 30 31 32 31 30 29 28 28 27 27 27 26 25 25 24 24 23 22 22 21
5 5 4 4 4 3 2 2 3 4 5 6 7 9 9 9 9 8 10 10 10 10 9 10 11 12 12 11 10 10 9 8 7 8 9 9 10 11 12 13 14 15 16 18 19 20 21 21 22 23 23 24 24 25 28 30 30 31 30 30 30 30 30 29 29 30 30 32 33 32 31 30 30 29 29 28 28 27 26 26 25 24 23 23 22
6 6 6 5 4 3 3 3 4 5 7 9 9 10 9 8 7 6 8 9 9 8 7 8 8 9 11 12 12 8 6 5 4 6 9 10 9 8 8 9 10 11 12 14 15 16 18 19 20 22 23 25 25 26 27 28 29 30 30 31 31 31 32 32 31 31 30 31 32 33 33 32 31 31 30 30 29 29 28 27 27 26 25 24 24
6 6 6 5 4 3 3 3 4 6 8 8 8 8 7 6 6 6 6 7 8 5 6 6 5 7 7 9 11 8 7 3 3 8 10 8 8 8 8 8 7 8 9 11 12 13 15 16 17 19 21 23 24 25 26 26 27 28 29 30 32 33 33 33 32 32 32 31 31 32 33 33 33 33 32 32 31 30 30 29 28 28 27 26 25
7 6 5 5 5 4 4 3 4 6 6 5 5 4 4 4 4 4 4 5 5 3 4 4 4 6 5 4 4 5 6 2 5 12 6 6 9 7 7 7 7 8 9 11 12 12 13 13 14 15 18 20 21 23 24 25 25 26 28 29 32 33 33 33 34 34 33 33 32 32 33 34 34 34 34 33 33 32 32 31 30 30 29 28 27
7 6 6 6 5 4 3 2 3 4 3 2 3 2 2 1 1 2 3 4 4 3 3 4 5 5 3 2 1 2 3 2 11 11 2 7 9 5 7 7 8 10 10 10 10 11 11 11 12 13 14 17 18 20 22 24 25 26 26 27 29 31 32 33 35 36 35 35 34 33 33 34 35 35 35 35 34 33 33 33 32 32 31 30 29
7 6 6 5 4 3 2 2 2 2 1 2 2 1 1 1 1 2 2 3 3 3 3 3 4 3 1 1 0 1 1 3 9 5 3 10 5 5 10 8 9 11 10 10 9 10 10 11 12 12 13 14 16 18 20 22 24 25 26 27 27 29 32 33 35 36 35 35 37 36 35 35 35 35 35 35 35 35 34 34 34 33 33 32 31
7 6 5 4 4 3 3 2 2 2 1 3 3 1 1 1 2 2 2 1 2 3 3 3 2 1 1 2 2 2 3 4 5 2 8 8 1 6 12 10 13 13 10 11 11 11 11 11 13 13 15 15 15 17 18 19 21 22 25 26 27 28 31 32 32 34 33 34 37 38 37 36 36 36 36 35 35 35 35 35 35 35 34 33 32
7 6 5 5 4 4 5 4 2 2 2 3 2 1 1 2 2 2 1 0 1 2 2 2 0 1 1 1 3 3 4 4 2 2 6 4 4 11 12 12 15 12 12 14 14 15 14 13 14 14 15 16 16 17 17 18 19 21 22 24 25 26 29 30 31 33 32 33 36 38 39 38 38 37 37 37 36 35 35 35 36 36 35 35 34
8 7 6 5 5 5 6 5 3 3 3 2 1 0 1 1 1 1 0 1 1 1 1 1 0 1 1 1 2 2 3 4 4 3 3 3 7 11 12 17 17 12 13 15 16 17 16 15 15 15 16 15 16 17 17 18 19 21 22 23 23 24 26 28 30 31 32 32 34 37 39 39 40 39 38 38 37 36 35 36 36 36 36 36 36
8 6 6 6 5 5 6 5 4 3 3 2 2 1 1 0 1 2 2 2 2 2 1 2 1 1 2 2 2 2 2 2 3 2 2 3 4 5 11 17 16 15 16 16 18 18 16 16 16 15 16 16 17 17 18 19 20 21 22 23 24 23 24 26 27 29 32 33 33 35 37 39 40 40 40 39 38 37 36 37 36 35 35 36 36
8 7 7 7 6 5 5 5 4 4 2 1 1 2 2 2 2 3 3 3 2 2 1 2 2 2 2 2 2 2 1 1 3 3 3 4 3 5 9 9 10 14 17 18 18 16 16 16 16 17 17 17 17 17 18 19 20 21 22 23 24 24 25 25 26 27 29 32 33 35 37 38 39 39 39 39 38 38 37 37 36 36 35 35 36
8 7 7 6 6 6 5 5 5 5 3 2 1 2 3 3 3 3 2 2 2 2 1 2 2 3 3 3 3 2 3 3 4 4 4 5 3 4 8 9 9 12 16 19 16 15 16 16 17 19 18 18 18 17 17 19 20 22 22 23 23 24 25 26 27 27 28 29 31 34 37 38 38 39 39 38 38 39 38 37 37 37 36 35 35
9 8 7 6 6 6 6 7 8 7 5 3 2 2 3 4 4 3 2 2 2 2 2 2 3 3 3 3 3 3 3 3 3 5 6 6 4 3 7 9 8 10 15 18 16 15 14 15 19 19 18 18 18 18 19 20 21 22 23 24 24 24 24 25 26 27 29 29 30 33 36 37 37 38 39 38 37 37 38 37 37 37 37 36 35
10 9 8 7 7 7 8 9 9 9 6 4 3 3 4 4 5 5 4 3 4 4 3 3 3 3 3 3 3 3 3 3 3 5 6 7 6 4 6 6 5 10 15 15 14 15 13 15 19 18 18 18 19 21 22 22 23 23 23 24 24 25 25 25 25 26 27 29 31 32 34 35 36 37 37 38 38 37 36 37 36 36 37 37 37
12 11 10 8 8 9 9 8 8 7 6 6 5 4 4 5 5 5 5 5 5 5 4 3 3 3 3 4 4 4 3 4 4 6 7 7 7 6 4 5 6 10 11 10 13 13 11 15 20 18 18 20 22 23 24 25 26 26 25 25 25 25 26 26 26 26 26 26 28 31 33 34 35 36 36 38 39 39 37 37 37 37 38 38 38
13 12 11 9 8 8 7 6 5 5 6 6 5 5 5 5 5 4 4 5 6 6 5 4 4 4 5 5 6 6 5 5 6 6 7 8 8 7 5 3 5 6 6 8 11 11 11 16 20 19 19 22 25 25 26 27 27 28 28 28 27 26 25 26 27 27 27 26 26 28 30 32 33 34 36 38 39 40 39 38 38 39 39 39 39
12 12 11 10 8 7 7 6 6 5 5 6 6 6 7 7 7 6 5 5 6 6 5 6 6 6 6 7 8 8 6 6 7 7 6 7 7 7 7 5 3 2 3 4 6 8 11 15 17 19 21 25 27 27 28 29 29 29 30 30 30 29 27 27 27 27 27 27 26 26 27 29 31 32 35 37 39 41 41 40 39 40 40 40 40
13 12 13 12 10 8 8 8 7 7 7 7 7 7 9 10 10 10 8 7 7 8 7 7 8 7 7 8 9 9 8 7 8 8 7 7 6 6 7 7 5 3 2 3 3 4 11 16 15 18 25 28 29 30 30 31 31 31 31 31 31 31 30 28 27 27 27 27 28 27 26 27 28 30 32 34 37 39 41 41 40 40 40 40 40
14 13 13 13 11 10 9 9 9 9 9 8 9 9 10 10 11 11 10 9 9 9 9 9 9 9 9 9 9 9 9 9 10 9 9 9 7 7 7 7 7 7 5 3 3 5 11 18 18 21 28 31 31 32 32 31 32 31 31 31 32 31 31 30 29 28 27 27 28 28 28 27 27 28 29 32 34 37 39 40 41 41 40 40 40
15 15 14 14 13 11 11 10 10 10 10 10 10 11 11 11 11 11 11 11 11 10 9 9 9 10 10 10 11 11 11 11 11 11 12 12 11 10 8 8 9 9 9 6 3 6 12 17 22 27 30 31 32 33 33 32 32 32 32 32 32 32 31 31 30 28 27 27 27 28 29 29 28 27 28 30 32 34 36 38 40 41 41 41 40
17 17 16 15 13 12 12 12 12 11 11 10 10 11 12 12 12 12 12 12 13 12 11 11 10 11 12 13 14 14 13 12 13 14 14 15 15 14 12 11 11 11 12 10 6 9 18 21 24 28 29 30 31 32 33 34 33 33 33 32 32 32 32 32 31 28 27 27 27 27 28 28 28 28 28 29 31 32 34 37 39 40 41 41 40
18 17 16 15 14 13 13 13 13 13 13 12 11 11 12 12 12 13 14 13 14 14 14 13 13 13 14 15 16 16 15 14 15 15 16 17 17 18 17 16 16 14 14 14 10 10 18 22 23 27 30 29 29 31 33 34 34 34 33 33 33 32 32 32 32 30 27 26 26 27 27 27 27 27 27 28 29 31 33 35 36 38 39 40 40
19 18 17 16 15 15 15 15 15 16 16 15 15 13 12 12 12 13 14 15 15 15 16 16 15 15 15 16 17 17 17 17 17 17 17 18 19 20 20 20 21 20 18 17 13 10 15 21 23 27 30 29 28 30 32 33 34 34 33 33 33 32 32 32 32 32 30 27 27 27 27 27 27 27 28 27 27 29 31 32 34 35 36 38 39
20 19 18 17 16 16 16 17 18 19 19 18 18 17 15 13 13 13 14 15 16 16 17 16 16 15 16 17 18 18 17 18 18 17 18 19 19 21 23 23 23 24 22 20 17 13 15 19 22 24 28 30 30 30 31 33 33 32 32 33 32 32 32 32 32 32 31 29 28 27 28 28 28 28 28 28 27 26 28 29 31 32 34 36 38
20 19 18 17 17 17 18 20 21 21 21 21 21 21 19 16 14 14 14 14 15 15 16 16 15 14 15 16 17 17 16 17 18 18 18 19 20 21 24 25 25 26 25 23 21 18 16 18 22 24 26 28 30 31 31 31 31 30 30 31 31 31 31 30 30 31 31 29 28 27 27 28 28 28 28 28 28 26 26 26 28 30 32 34 36
20 18 17 17 17 18 20 21 20 19 19 19 20 21 20 18 16 15 15 15 15 14 15 15 14 14 14 16 17 16 16 17 18 19 18 18 19 19 22 24 26 27 27 25 24 22 19 18 21 24 26 28 29 31 31 29 29 30 31 30 30 30 30 30 30 30 30 30 28 27 27 26 27 27 28 28 28 28 26 25 26 28 30 33 34
18 17 17 17 17 18 19 18 17 16 15 15 16 16 18 18 18 17 18 17 16 15 15 15 14 14 14 15 16 16 16 18 18 18 18 18 18 18 20 22 24 26 27 27 25 23 21 20 20 23 26 28 28 29 30 29 27 29 30 30 30 30 29 29 30 31 30 29 29 29 27 26 26 26 27 27 28 28 28 27 26 27 28 31 33
18 17 17 17 17 17 17 17 16 15 13 12 13 14 15 17 18 18 19 18 18 17 16 16 16 15 15 15 15 16 16 17 18 17 17 17 17 18 20 21 22 23 25 25 25 23 22 20 19 20 24 26 27 28 29 29 28 27 27 26 28 31 31 28 29 32 32 31 31 31 29 27 26 26 26 26 27 28 29 28 28 27 28 29 32
20 18 18 18 18 17 17 17 16 15 13 13 13 13 14 15 16 16 17 17 18 17 17 17 17 17 17 16 15 16 16 16 17 16 16 16 17 19 20 20 19 20 22 23 24 23 21 19 20 20 21 24 27 28 28 27 25 24 25 24 24 29 32 30 30 31 32 32 31 30 29 28 26 26 26 26 27 28 29 30 29 29 29 29 30
21 20 19 19 18 18 18 18 16 15 14 13 13 13 13 14 15 15 15 16 17 17 17 18 18 19 18 17 16 16 16 16 16 15 15 16 18 20 21 20 18 19 20 22 23 21 20 19 20 20 18 20 24 25 24 24 23 25 28 27 25 28 31 32 32 30 28 28 28 28 28 27 27 27 27 27 28 28 29 31 31 31 31 30 30
23 21 21 20 19 19 18 17 17 16 15 14 14 14 14 14 15 15 16 16 16 17 18 19 20 20 19 18 17 16 16 16 15 15 16 16 17 19 19 18 18 19 19 21 22 20 19 20 21 19 16 17 23 24 22 25 28 28 28 26 25 28 29 27 28 30 26 22 23 26 27 27 26 27 27 28 29 29 29 31 32 32 32 32 31
25 23 23 22 20 18 18 17 17 17 17 16 16 15 14 14 16 17 17 18 18 18 20 21 22 22 21 19 18 17 16 16 15 15 15 16 16 17 17 17 17 18 19 21 22 21 20 21 21 20 17 17 23 26 25 26 28 27 27 26 25 26 24 19 19 25 25 20 20 26 30 29 26 26 28 28 29 30 30 31 32 32 33 32 31
27 26 25 24 21 18 17 17 18 19 19 18 18 17 16 16 16 17 18 19 20 21 22 22 23 23 22 21 19 18 18 16 16 16 15 15 15 16 17 17 17 17 18 19 22 23 22 21 21 22 21 20 23 27 26 25 26 27 28 28 26 24 24 20 18 24 29 27 24 25 30 31 27 25 28 29 29 30 31 32 32 32 32 32 31
28 27 27 24 21 18 18 18 19 20 19 19 19 19 19 18 17 17 18 20 21 22 22 23 24 24 22 21 20 20 19 17 16 16 16 17 16 16 17 17 18 18 18 18 21 23 24 24 23 25 25 23 23 27 28 26 27 28 28 27 27 25 24 24 24 29 35 33 27 24 28 32 29 25 28 30 29 30 31 31 33 33 33 32 31
28 27 26 23 21 19 19 19 20 20 20 20 20 20 20 19 18 18 19 20 21 21 21 22 23 23 22 20 20 20 20 18 17 17 17 18 18 18 18 18 18 18 18 19 21 22 23 23 24 26 27 26 26 28 29 28 28 29 28 28 30 29 29 31 33 36 39 37 31 25 24 29 30 25 27 30 29 29 31 31 32 33 33 34 33
27 27 26 23 21 20 20 20 20 21 21 20 20 21 21 20 19 19 19 20 20 20 20 20 21 22 20 19 18 19 20 19 17 17 18 18 19 19 19 18 18 18 19 21 22 21 20 20 22 25 27 27 28 29 29 28 29 31 31 31 34 34 33 34 35 36 36 35 31 23 20 26 29 25 27 30 28 29 31 31 32 33 33 34 34
27 26 25 23 22 21 21 21 22 22 22 20 20 21 22 21 21 20 20 20 20 19 19 19 20 19 18 17 17 18 19 19 18 17 17 19 19 19 19 19 18 19 22 24 22 20 20 20 22 25 26 27 28 28 27 26 28 31 31 32 35 35 30 27 27 30 31 30 28 24 22 26 28 25 27 30 28 28 31 31 31 31 32 33 33
27 26 25 23 22 22 23 24 25 25 24 23 22 22 23 23 23 22 22 22 21 20 19 19 19 17 16 16 16 16 18 18 18 18 19 19 19 18 18 19 19 22 25 25 22 20 20 22 24 24 25 26 26 24 24 25 27 29 28 28 32 32 25 18 18 23 28 29 27 25 24 25 27 25 26 28 28 27 29 30 31 31 30 31 32
26 25 24 24 23 24 25 27 27 27 26 26 24 23 24 24 23 24 25 24 23 22 19 18 19 17 16 15 14 14 17 18 18 19 19 17 17 16 17 19 20 24 25 23 21 22 23 24 25 25 25 24 21 21 23 24 25 27 26 28 31 30 24 19 19 23 28 31 29 25 23 24 26 26 24 23 24 28 30 30 30 31 31 30 30
25 24 23 23 24 26 27 27 27 27 28 28 26 26 26 25 23 24 26 25 24 22 18 19 20 18 16 15 14 14 16 17 17 18 16 15 15 15 16 18 21 23 22 20 20 23 25 26 27 27 27 24 20 21 23 23 24 27 28 29 31 29 26 25 26 23 19 22 25 20 20 23 24 25 23 15 12 19 27 31 31 31 32 31 30
Wind_Direction
251 251 250 251 254 261 269 273 272 270 265 267 274 284 289 290 294 297 299 299 302 306 307 305 304 304 305 307 308 309 309 306 303 301 298 292 286 276 266 261 258 256 252 248 244 237 234 232 229 228 227 225 223 223 223 224 225 225 225 225 224 225 225 225 227 228 227 225 223 221 223 224 227 230 232 233 235 236 236 238 241 243 245 247 250
254 252 252 255 256 260 266 270 268 262 261 267 275 284 291 294 297 300 302 301 299 302 303 301 301 302 302 301 304 306 307 304 300 299 299 295 292 285 272 263 260 259 257 255 253 244 237 236 234 230 228 227 226 226 226 226 227 228 229 228 228 227 227 227 227 229 230 229 227 225 225 227 229 232 234 235 236 237 238 240 243 245 247 249 251
256 255 257 259 261 262 265 269 268 265 267 275 283 288 292 293 291 290 295 300 302 304 305 304 302 301 300 299 302 306 307 304 298 297 299 298 294 288 278 270 263 261 260 258 255 250 241 239 239 237 234 232 230 229 229 228 228 229 232 232 231 229 230 230 228 228 230 231 231 229 228 229 231 233 235 236 236 238 239 241 244 246 248 250 253
255 255 256 258 260 262 266 269 270 274 280 287 295 298 296 294 291 287 292 300 303 305 306 306 306 307 304 301 301 303 304 303 298 296 298 297 292 284 277 276 273 266 264 260 254 249 245 241 241 241 239 236 233 232 232 230 230 231 233 235 234 232 230 231 231 230 230 231 232 232 231 230 231 233 235 237 237 238 240 242 244 246 249 251 252
254 255 254 254 255 259 264 268 273 281 291 295 302 307 305 306 306 304 309 309 304 305 306 305 309 312 311 309 305 301 299 299 295 293 294 295 294 284 274 277 283 275 268 266 261 253 249 243 240 240 242 240 236 234 235 233 232 233 233 236 238 237 233 232 233 232 231 231 232 233 232 232 232 233 235 237 238 239 241 242 244 246 249 252 254
254 254 252 252 253 259 268 272 276 281 292 299 307 312 311 312 314 314 318 319 315 315 313 307 309 311 314 316 312 306 299 294 290 289 290 291 292 287 277 278 285 281 270 268 267 262 257 251 245 242 242 243 240 238 238 237 236 235 234 235 237 239 238 234 233 233 233 232 232 232 233 232 232 232 234 236 238 240 241 243 244 247 250 253 254
251 251 252 253 256 267 276 279 282 287 295 302 311 313 313 316 317 318 323 326 324 322 318 312 312 311 314 315 313 309 300 290 286 286 288 288 286 283 281 280 282 282 275 270 269 268 265 260 252 246 242 241 242 242 241 240 239 238 236 235 236 238 240 238 236 234 234 234 234 233 233 233 232 232 233 235 238 239 241 243 244 246 249 252 254
252 253 256 256 263 277 282 287 295 300 298 300 310 317 320 323 324 327 328 329 327 324 322 319 315 313 312 311 310 309 301 293 289 289 289 286 282 279 279 281 282 282 280 277 275 274 271 266 258 250 245 244 244 244 244 243 243 241 240 239 237 237 239 240 240 238 235 235 235 235 234 234 233 233 234 235 238 239 241 242 243 245 247 250 253
257 263 265 265 272 279 284 293 302 303 296 302 318 331 334 333 331 332 330 328 326 324 324 321 318 315 312 310 311 310 303 299 297 294 289 283 281 280 279 281 283 283 282 281 280 278 274 270 265 257 253 251 248 247 246 245 245 244 243 241 239 239 239 240 242 242 239 237 236 236 236 236 235 235 235 235 237 239 241 242 243 245 247 250 252
259 268 269 270 273 276 282 292 297 296 299 310 321 323 325 326 324 325 325 324 322 323 325 322 319 318 315 314 314 312 307 307 306 299 289 282 282 284 284 285 286 286 286 285 283 281 277 275 271 266 261 255 252 252 249 246 246 245 245 244 242 241 240 241 242 243 242 240 238 238 237 237 237 237 236 236 236 238 240 242 244 246 247 249 251
249 251 252 259 261 266 273 271 272 285 300 304 306 307 306 307 310 311 314 315 318 325 327 322 320 319 319 320 320 317 314 314 313 308 300 291 288 288 288 289 291 291 290 287 285 282 279 277 275 273 269 263 259 258 253 248 247 247 247 246 245 244 242 242 242 243 243 242 241 239 239 239 239 239 238 238 238 238 239 241 243 245 247 248 250
205 199 208 225 227 227 217 227 267 292 307 307 306 303 300 300 300 300 305 311 322 332 333 325 323 323 324 327 329 324 320 322 322 324 326 319 310 302 301 302 303 303 300 293 288 284 281 278 277 276 276 273 270 265 257 252 250 251 250 249 248 247 246 244 243 244 244 243 242 241 240 240 241 241 240 240 240 240 240 241 242 244 245 247 248
179 177 182 187 182 183 206 245 286 306 309 305 300 296 294 296 292 293 303 313 327 340 341 332 330 334 332 332 337 343 341 340 3 4 348 339 338 338 338 333 325 321 314 307 304 299 293 287 283 279 278 278 275 271 265 260 256 256 255 253 253 253 252 249 246 244 244 244 243 242 242 241 242 242 242 242 241 241 241 242 242 243 244 245 247
179 180 181 184 191 206 229 257 293 308 304 297 294 291 291 294 288 293 305 317 330 354 359 349 347 340 331 330 340 354 1 33 68 4 349 342 351 0 4 6 355 345 333 327 326 320 313 304 294 286 282 281 279 276 273 269 264 262 261 257 255 254 253 253 252 249 247 246 243 242 243 243 243 243 244 244 243 243 243 243 244 244 244 245 246
192 197 203 212 219 222 230 269 305 308 300 292 295 294 297 300 290 300 315 327 346 25 13 0 343 335 334 336 345 349 356 54 345 342 2 16 8 15 16 19 12 357 346 336 330 325 324 317 306 297 292 289 286 283 279 276 272 268 267 264 259 255 252 251 252 253 253 250 247 244 243 244 244 244 244 245 245 245 245 245 245 245 245 246 246
200 208 216 221 222 219 232 286 309 306 297 306 317 312 324 332 323 333 341 349 4 20 9 0 347 348 357 344 15 347 330 331 332 333 44 12 5 26 6 358 352 345 341 335 328 324 325 322 318 312 306 301 295 291 287 284 281 275 272 268 264 260 256 251 248 250 252 253 251 247 244 244 244 245 246 246 246 246 246 246 246 246 246 246 247
203 209 217 226 223 218 237 278 298 302 331 357 347 349 12 34 50 21 7 0 352 345 354 356 345 349 313 271 341 355 271 319 335 319 321 344 357 8 353 352 346 342 341 341 338 334 330 324 322 318 315 311 304 299 294 291 288 283 278 273 267 263 261 258 252 249 249 251 252 250 246 244 244 245 246 246 247 248 248 248 247 248 248 248 248
205 211 220 228 224 224 227 240 278 294 328 352 355 5 29 77 80 52 36 9 327 317 335 339 327 325 283 240 239 263 260 319 343 288 318 335 296 337 350 357 348 344 346 352 351 345 337 328 323 319 316 314 310 307 303 299 295 289 285 280 274 267 265 264 260 256 252 251 252 251 248 247 246 245 245 246 246 248 249 250 249 249 250 250 250
206 210 215 221 228 228 221 224 256 287 314 332 348 21 75 117 109 85 59 352 276 286 323 337 0 112 64 251 244 254 257 283 288 279 321 322 292 324 344 350 345 347 352 356 354 348 344 337 330 326 322 318 315 312 308 305 302 297 291 286 280 273 270 269 266 263 259 255 254 253 250 249 248 247 246 246 246 246 248 250 251 250 251 251 251
206 210 217 227 233 223 214 218 239 280 309 306 296 61 110 144 139 98 324 303 280 284 310 316 329 82 10 257 232 255 250 248 256 281 308 300 308 320 335 343 347 355 356 353 351 350 350 348 344 340 338 334 329 324 318 314 309 305 301 295 290 283 277 273 270 267 263 261 258 255 253 251 250 249 248 248 247 246 247 249 251 252 252 251 252
206 215 225 230 232 226 216 219 246 289 310 284 235 228 221 257 316 327 316 301 282 283 295 288 290 321 312 275 239 263 264 242 249 253 244 269 301 314 327 340 347 349 352 352 351 355 355 354 355 353 349 345 341 337 331 325 319 314 310 305 301 294 288 281 276 271 268 266 262 259 258 255 253 252 250 249 248 248 247 248 250 251 253 253 253
214 224 230 228 228 228 219 228 268 296 300 281 249 255 263 286 315 317 310 296 273 265 280 284 286 293 294 282 253 231 209 204 205 198 237 255 260 291 304 322 327 328 343 352 353 1 4 2 2 359 355 351 346 342 337 333 328 323 318 313 309 303 297 291 285 279 274 270 266 263 260 258 256 254 251 248 248 249 248 247 248 249 251 252 253
222 228 226 223 220 215 221 251 281 288 277 265 289 296 284 282 301 307 299 291 261 250 268 279 282 284 287 288 278 243 222 215 194 190 221 241 249 280 289 302 296 296 329 349 353 2 8 9 6 1 360 358 354 348 339 333 328 324 322 318 312 307 302 297 292 287 282 277 272 267 262 259 259 256 253 250 247 248 249 249 249 249 249 250 251
228 228 222 221 217 219 247 274 284 284 270 246 259 307 302 283 279 279 288 299 268 256 272 279 280 276 273 282 291 277 252 240 210 205 216 228 244 259 280 307 302 287 318 338 346 355 5 8 3 1 2 0 357 351 340 332 326 321 317 312 308 305 302 298 294 290 286 282 277 272 266 263 261 258 257 256 251 247 248 249 250 249 248 248 249
226 223 224 224 223 242 268 276 278 276 260 243 252 280 300 285 268 266 278 287 271 264 270 274 275 266 258 263 272 273 262 261 250 239 234 230 241 260 280 297 291 294 314 327 333 341 356 1 358 358 359 358 353 349 344 339 333 328 321 312 304 299 297 295 293 290 286 283 280 276 271 267 264 261 259 258 255 251 249 250 249 249 250 250 250
224 221 224 226 235 255 264 264 267 263 249 249 252 261 281 278 268 269 275 278 269 263 263 263 263 258 254 254 259 261 260 265 261 257 256 247 242 251 276 295 289 291 304 316 321 327 338 346 350 355 354 350 347 345 344 342 339 336 332 322 310 301 293 291 290 288 287 284 280 278 274 270 267 264 260 257 256 255 253 251 249 250 252 253 251
223 222 222 223 236 247 244 244 251 249 245 246 244 249 259 258 261 269 275 278 268 259 255 254 259 265 264 262 260 259 260 259 256 257 259 258 262 264 265 290 298 292 299 309 313 314 318 330 340 347 347 343 342 341 340 339 339 337 334 327 320 311 300 291 286 285 285 284 283 279 276 273 269 266 262 258 256 257 256 253 250 250 252 253 252
214 215 214 216 225 229 229 235 239 240 243 241 241 247 252 254 256 260 268 276 270 260 253 254 261 266 269 269 261 260 265 260 256 260 257 254 264 270 262 250 252 286 307 304 308 315 320 326 332 336 338 338 339 340 337 335 336 335 331 327 323 318 311 300 289 284 283 283 283 282 278 275 271 267 263 260 258 257 258 255 251 250 252 253 253
206 210 212 216 222 224 228 232 233 237 240 240 245 251 255 257 256 255 260 269 273 268 259 258 264 268 271 271 264 261 264 261 259 261 256 254 257 260 259 244 228 232 279 302 285 283 310 320 321 322 329 334 336 336 335 334 334 332 327 325 322 318 316 309 296 286 282 281 280 280 279 276 273 269 265 262 260 258 257 256 254 252 253 254 253
206 212 215 218 221 224 230 235 235 236 237 236 240 245 250 253 253 255 257 260 270 271 265 264 266 269 271 272 269 267 265 261 260 261 256 257 262 264 264 253 237 228 220 255 282 262 292 312 314 313 321 329 332 331 331 332 332 330 325 322 320 318 317 313 303 289 281 279 277 276 276 275 273 270 267 264 262 260 258 256 255 254 254 254 253
209 213 216 218 221 225 233 239 239 239 241 241 241 243 247 252 254 258 260 260 265 269 269 268 268 268 268 270 269 269 271 265 257 256 256 256 261 264 268 264 254 248 235 226 256 275 284 301 309 313 319 324 327 327 326 329 330 328 325 322 321 321 319 315 309 296 282 278 277 275 274 273 272 270 268 265 262 261 259 257 256 255 254 254 253
209 213 218 221 225 230 236 242 240 240 245 246 246 248 250 256 260 262 264 262 264 266 267 267 268 268 268 271 273 273 274 269 256 252 255 257 259 261 268 272 268 263 251 231 224 274 287 296 303 310 318 321 323 325 323 325 328 327 325 324 323 323 320 317 314 305 290 281 279 277 274 272 271 269 269 267 263 261 259 257 256 255 254 253 252
211 215 220 224 230 236 239 244 245 245 248 250 251 251 252 257 261 264 264 262 262 263 263 266 269 272 273 275 278 278 276 270 260 254 255 257 258 259 263 269 271 269 260 245 235 266 289 299 302 307 315 317 318 323 322 321 324 326 325 325 324 322 320 318 316 310 300 288 283 281 278 274 271 269 269 268 265 261 259 257 256 254 254 253 252
215 217 223 228 234 239 242 247 250 252 254 253 253 253 252 257 261 264 264 261 261 260 260 265 271 276 279 279 280 282 279 273 265 259 260 262 259 259 261 264 268 271 267 258 252 259 283 296 302 306 314 316 313 318 321 318 320 323 323 323 323 321 320 318 315 311 306 296 289 284 281 277 272 269 269 269 267 263 259 257 255 255 254 253 253
218 221 226 231 235 241 247 252 255 258 259 258 257 253 251 255 258 260 263 262 260 259 260 265 272 277 279 279 281 281 279 275 269 265 266 268 265 262 263 264 265 270 272 267 263 262 273 290 299 303 310 312 310 314 318 317 318 321 321 321 321 320 320 319 316 312 308 302 295 289 283 279 275 270 267 267 267 265 261 258 256 255 255 255 254
220 224 229 234 240 246 252 256 259 261 261 261 260 256 250 251 254 257 261 262 261 261 262 265 269 273 276 277 279 279 277 274 271 270 271 273 274 269 266 266 265 268 271 271 269 269 270 282 294 298 302 304 306 311 316 316 318 320 320 320 320 318 319 320 317 314 311 306 300 294 287 281 277 272 266 264 264 264 263 259 256 256 256 257 256
222 229 236 243 248 250 252 254 256 258 258 260 261 257 250 247 252 256 258 260 262 264 265 265 267 270 274 276 278 278 277 274 272 272 275 278 280 277 272 270 270 269 270 270 271 273 270 272 285 295 299 299 302 309 314 314 314 318 319 320 320 318 317 318 317 314 312 309 304 300 294 287 280 274 268 263 262 262 261 259 257 255 255 256 255
226 236 245 247 248 249 248 248 249 251 252 254 255 252 246 245 250 256 259 261 263 266 267 266 265 268 272 276 279 279 276 275 274 274 277 282 282 280 278 278 277 274 271 269 270 274 274 273 281 291 296 298 300 306 314 314 311 311 314 317 319 318 316 315 315 314 313 309 304 300 296 291 285 279 272 265 261 260 259 258 257 255 254 253 253
231 240 243 241 244 245 243 243 245 246 248 250 253 249 243 244 251 256 261 262 263 267 270 268 266 266 269 275 280 279 275 274 276 278 280 282 281 281 283 284 284 279 272 270 270 273 275 276 282 288 293 297 298 300 308 314 312 309 309 312 315 317 316 314 312 311 310 307 305 301 297 292 286 280 274 268 262 259 258 258 257 256 254 253 251
235 240 238 236 239 239 239 242 242 242 245 251 257 254 247 249 255 258 261 262 263 266 268 268 267 265 267 274 279 280 276 273 274 278 281 280 280 283 287 288 287 281 274 272 274 275 275 276 283 288 290 294 296 298 305 312 312 311 312 311 309 310 313 312 309 307 305 305 306 305 300 294 287 281 276 270 263 257 255 255 254 254 254 253 251
239 239 234 233 234 236 238 238 235 237 245 254 260 261 258 258 259 260 262 262 262 264 266 267 268 266 266 271 278 282 278 272 272 275 278 280 282 286 290 290 287 282 276 275 275 274 274 277 282 286 287 289 292 296 303 307 306 306 309 310 306 306 309 309 307 307 304 302 304 304 301 296 288 282 277 271 265 258 253 251 251 250 250 251 251
239 235 231 229 232 237 236 232 232 238 247 256 262 263 263 261 259 259 262 263 263 264 266 268 269 268 267 270 277 283 279 271 270 273 278 283 284 285 288 287 284 281 278 276 275 272 272 278 281 283 283 282 286 292 297 302 304 303 304 307 306 307 309 307 306 308 308 303 301 300 299 297 290 283 276 270 266 262 255 251 249 247 247 248 250
236 231 228 229 233 238 237 235 240 247 252 257 259 259 259 258 258 260 263 266 266 267 270 271 271 270 269 269 275 282 279 271 269 274 279 282 282 283 285 283 279 276 274 274 274 272 274 278 280 281 278 276 284 291 295 300 303 301 300 304 304 305 306 305 304 307 307 306 302 297 295 295 291 283 276 271 267 263 258 253 249 246 245 245 247
234 228 227 231 237 243 244 243 249 253 256 257 258 259 260 258 259 263 266 267 267 268 270 271 270 269 268 268 274 280 280 274 273 278 280 280 282 284 283 281 277 274 272 274 275 275 276 277 278 279 278 276 281 289 294 298 299 297 299 301 301 299 299 296 294 296 298 301 301 294 289 290 289 282 276 272 267 263 259 256 252 249 247 245 244
234 230 229 233 241 248 250 251 256 260 260 260 260 261 261 260 262 265 266 267 265 265 267 269 269 269 267 268 273 279 280 277 277 280 281 281 285 287 284 279 275 274 276 279 281 281 279 277 275 276 278 276 277 286 294 296 293 294 297 299 299 297 292 290 289 289 293 296 293 287 284 283 281 277 273 271 268 263 259 257 254 251 250 247 244
234 231 230 236 245 251 252 254 260 265 265 264 267 268 265 262 263 266 266 264 260 260 264 269 270 270 268 268 272 277 279 278 277 279 281 284 288 289 286 280 277 277 281 287 291 290 284 278 274 276 280 280 279 285 294 296 291 290 292 294 296 295 290 290 290 289 291 291 286 279 277 277 274 271 269 268 266 262 259 256 254 252 250 250 247
234 233 235 241 248 252 253 255 261 266 267 267 272 274 270 264 264 267 263 257 254 258 263 268 271 270 268 267 270 276 278 278 278 278 280 285 288 288 285 281 281 282 286 294 298 294 288 283 279 280 284 286 285 286 292 296 295 294 295 296 296 295 292 292 292 290 289 289 282 269 266 273 271 264 263 265 263 261 259 256 254 252 249 250 249
235 236 239 245 250 252 253 254 257 260 263 264 267 271 271 269 268 266 258 252 252 256 261 267 270 268 263 262 267 274 277 279 280 278 279 284 285 284 283 282 282 284 290 296 298 291 288 288 287 286 287 288 288 289 291 296 299 301 302 301 298 297 294 292 293 290 288 289 281 262 256 268 268 259 259 262 259 257 257 254 253 252 250 249 248
235 238 242 247 251 253 252 252 252 254 257 260 260 263 269 274 274 265 254 250 250 252 259 269 269 262 256 258 266 273 279 282 282 278 279 280 279 279 280 282 285 289 294 298 297 293 293 294 293 291 290 289 288 288 290 296 304 307 303 296 295 296 293 289 291 292 290 290 282 263 250 258 262 256 256 259 256 253 254 253 251 252 251 249 248
238 242 246 250 253 253 252 251 251 254 259 262 262 261 265 274 276 264 251 247 248 249 258 269 266 257 254 259 269 278 284 286 283 279 277 276 276 277 278 283 289 292 296 300 302 302 303 303 301 299 298 298 292 288 293 301 311 313 304 294 294 294 289 286 291 294 291 287 281 264 246 250 257 252 251 257 256 251 250 251 250 249 250 250 249
243 247 252 255 256 255 253 252 252 253 258 263 264 262 261 268 272 261 247 243 244 247 258 267 262 255 254 261 272 283 287 286 281 276 273 272 275 276 277 284 289 290 295 303 306 307 308 307 306 305 305 305 297 293 301 309 315 316 308 300 298 293 288 288 291 292 290 286 283 265 241 243 251 248 243 246 254 251 246 246 247 245 245 245 246